This demonstration page uses our WeatherBlox Daily Observations layout. Learn more.

Left ArrowRight Arrow

39.08367, -84.50855

Hourly Observations for November 8, 2015

Temp ( °F °C ) Dew Point ( °F °C ) Humidity (%) Winds ( mph kmh ) Pressure ( in mb ) Visibility ( mi km ) Precip ( " mm )
12:53 am 00:53 Clear 37 2.8 37 2.8 100 100 Calm 30.42 1030 9 14 0.00 0.00
1:53 am 01:53 Clear with Mist and Fog 36 2.2 36 2.2 100 100 Calm 30.42 1030 4 6 0.00 0.00
2:53 am 02:53 Clear 36 2.2 36 2.2 100 100 Calm 30.43 1031 7 11 0.00 0.00
3:53 am 03:53 Clear with Mist and Fog 33 0.6 33 0.6 100 100 ENE 3 6 30.43 1030 4 6 0.00 0.00
4:53 am 04:53 Clear with Mist and Fog 32 0 32 0 100 100 NE 3 6 30.44 1031 3 5 0.00 0.00
5:15 am 05:15 Clear with Mist and Fog 32 0 32 0 100 100 Calm 30.48 1032 2 2 0.00 0.00
5:32 am 05:32 Clear with Mist and Fog 34 1 34 1 100 100 Calm 30.48 1032 3 5 0.00 0.00
5:42 am 05:42 Clear with Mist and Fog 34 1 34 1 100 100 Calm 30.48 1032 2 2 0.00 0.00
5:51 am 05:51 Clear with Fog 34 1 34 1 100 100 Calm 30.48 1032 1 1 0.00 0.00
5:53 am 05:53 Clear with Mist and Fog 33 0.6 33 0.6 100 100 Calm 30.46 1032 1 1 0.00 0.00
5:58 am 05:58 Mostly Clear with Mist and Fog 32 0 32 0 100 100 Calm 30.48 1032 2 3 0.00 0.00
6:02 am 06:02 Partly Cloudy with Mist and Fog 30 -1 30 -1 100 100 Calm 30.48 1032 3 5 0.00 0.00
6:16 am 06:16 Partly Cloudy with Mist and Fog 32 0 32 0 100 100 Calm 30.48 1032 1 2 0.00 0.00
6:20 am 06:20 Mostly Cloudy with Mist and Fog 32 0 32 0 100 100 Calm 30.48 1032 1 1 0.00 0.00
6:45 am 06:45 Mostly Cloudy with Light Snow 31 -0.6 31 -0.6 100 100 NE 5 7 30.48 1032 0 0 0.00 0.03
6:53 am 06:53 Mostly Cloudy with Freezing Fog 31 -0.6 31 -0.6 100 100 ENE 5 7 30.47 1032 5 8 0.00 0.03
7:53 am 07:53 Mostly Cloudy with Freezing Fog 31 -0.6 31 -0.6 100 100 Calm 30.49 1032 5 8 0.00 0.00
8:34 am 08:34 Partly Cloudy with Freezing Fog 30 -1 30 -1 100 100 Calm 30.53 1034 1 1 0.00 0.00
8:53 am 08:53 Partly Cloudy with Patchy Fog 35 1.7 35 1.7 100 100 Calm 30.51 1033 5 8 0.00 0.00
9:53 am 09:53 Sunny 43 6.1 40 4.4 89 89 Calm 30.51 1033 10 16 0.00 0.00
10:53 am 10:53 Sunny 51 10.6 34 1.1 52 52 ENE 12 19 30.49 1032 10 16 0.00 0.00
11:53 am 11:53 Sunny 52 11.1 30 -1.1 43 43 ENE 7 11 30.47 1032 10 16 0.00 0.00
12:53 pm 12:53 Sunny 53 11.7 30 -1.1 41 41 VRB 3 6 30.43 1031 10 16 0.00 0.00
1:53 pm 13:53 Sunny 56 13.3 29 -1.7 36 36 NE 9 15 30.40 1030 10 16 0.00 0.00
2:53 pm 14:53 Sunny 56 13.3 26 -3.3 32 32 ENE 3 6 30.39 1029 10 16 0.00 0.00
3:53 pm 15:53 Sunny 56 13.3 27 -2.8 33 33 VRB 6 9 30.37 1028 10 16 0.00 0.00
4:53 pm 16:53 Sunny 53 11.7 27 -2.8 37 37 ENE 6 9 30.36 1028 10 16 0.00 0.00
5:53 pm 17:53 Clear 47 8.3 29 -1.7 50 50 NE 3 6 30.36 1028 10 16 0.00 0.00
6:53 pm 18:53 Clear 42 5.6 34 1.1 73 73 Calm 30.36 1028 10 16 0.00 0.00
7:53 pm 19:53 Clear 39 3.9 33 0.6 79 79 NE 3 6 30.37 1029 10 16 0.00 0.00
8:53 pm 20:53 Clear 36 2.2 33 0.6 89 89 NNE 6 9 30.36 1028 10 16 0.00 0.00
9:53 pm 21:53 Clear 36 2.2 34 1.1 93 93 ENE 3 6 30.36 1028 10 16 0.00 0.00
10:53 pm 22:53 Clear 34 1.1 33 0.6 97 97 Calm 30.36 1028 10 16 0.00 0.00
11:53 pm 23:53 Clear 33 0.6 32 0 96 96 Calm 30.35 1028 9 14 0.00 0.00

Powered by AerisWeather